KB7SAT Weather Reports


time (UTC)temp
C
wind
direction
speed
KPH
gust
KPH
rain 1hr
cm
rain 24hr
cm
rain mn
cm
humidity
%
barometer
mb
20240420172248 28 155 0.0 1.6 0.00 0.00 0.00 16 1103.9
20240420171747 27 160 0.0 1.6 0.00 0.00 0.00 17 1103.8
20240420171246 27 162 0.0 1.6 0.00 0.00 0.00 17 1103.7
20240420170745 27 162 0.0 0.0 0.00 0.00 0.00 17 1103.7
20240420170244 27 165 3.2 4.8 0.00 0.00 0.00 17 1103.8
20240420165744 27 133 3.2 4.8 0.00 0.00 0.00 17 1103.5
20240420165244 27 136 3.2 6.4 0.00 0.00 0.00 17 1103.6
20240420164742 27 78 1.6 3.2 0.00 0.00 0.00 17 1103.6
20240420164241 26 117 1.6 4.8 0.00 0.00 0.00 17 1103.7
20240420163739 26 122 0.0 1.6 0.00 0.00 0.00 18 1103.5
20240420163238 26 151 0.0 1.6 0.00 0.00 0.00 17 1103.6
20240420162737 26 124 0.0 3.2 0.00 0.00 0.00 17 1103.5
20240420162235 26 143 0.0 0.0 0.00 0.00 0.00 17 1103.6
20240420161733 26 140 0.0 0.0 0.00 0.00 0.00 18 1103.3
20240420161231 25 145 3.2 4.8 0.00 0.00 0.00 18 1103.3
20240420160729 25 161 0.0 1.6 0.00 0.00 0.00 18 1103.3
20240420160229 25 157 0.0 0.0 0.00 0.00 0.00 18 1103.1
20240420155727 25 144 0.0 0.0 0.00 0.00 0.00 19 1103.0
20240420155226 25 146 0.0 0.0 0.00 0.00 0.00 19 1103.1
20240420154726 24 130 0.0 0.0 0.00 0.00 0.00 20 1103.2
20240420154225 23 148 0.0 0.0 0.00 0.00 0.00 21 1103.0
20240420153723 23 83 3.2 3.2 0.00 0.00 0.00 20 1103.3
20240420153223 23 139 0.0 1.6 0.00 0.00 0.00 21 1103.2
20240420152722 22 131 0.0 3.2 0.00 0.00 0.00 21 1102.9
20240420152222 22 106 3.2 3.2 0.00 0.00 0.00 21 1102.9
20240420151721 22 77 3.2 4.8 0.00 0.00 0.00 22 1102.9
20240420151219 22 18 3.2 4.8 0.00 0.00 0.00 22 1102.9
20240420150718 22 139 1.6 4.8 0.00 0.00 0.00 23 1102.8
20240420150218 21 286 3.2 3.2 0.00 0.00 0.00 23 1102.8
20240420145717 21 305 3.2 4.8 0.00 0.00 0.00 23 1102.7
20240420145216 21 329 3.2 4.8 0.00 0.00 0.00 23 1102.6
20240420144715 21 307 8.0 11.3 0.00 0.00 0.00 23 1102.7
20240420144214 21 271 8.0 12.9 0.00 0.00 0.00 23 1102.5
20240420143714 20 251 4.8 11.3 0.00 0.00 0.00 24 1102.6
20240420143213 21 291 4.8 11.3 0.00 0.00 0.00 24 1102.3
20240420142713 20 343 6.4 12.9 0.00 0.00 0.00 23 1102.2
20240420142212 20 303 9.7 16.1 0.00 0.00 0.00 23 1102.2
20240420141710 20 270 9.7 14.5 0.00 0.00 0.00 24 1102.0
20240420141209 20 260 9.7 14.5 0.00 0.00 0.00 24 1102.1
20240420140708 20 289 6.4 14.5 0.00 0.00 0.00 24 1102.1
20240420140207 20 299 9.7 12.9 0.00 0.00 0.00 24 1102.0
20240420135705 20 303 11.3 12.9 0.00 0.00 0.00 23 1101.8
20240420135205 20 249 8.0 14.5 0.00 0.00 0.00 23 1101.7
20240420134704 20 273 9.7 14.5 0.00 0.00 0.00 22 1101.6
20240420134202 20 283 8.0 17.7 0.00 0.00 0.00 22 1101.5
20240420133702 20 289 6.4 12.9 0.00 0.00 0.00 23 1101.6
20240420133200 20 277 3.2 11.3 0.00 0.00 0.00 23 1101.4
20240420132659 20 288 8.0 14.5 0.00 0.00 0.00 23 1101.3
20240420132158 20 224 6.4 11.3 0.00 0.00 0.00 23 1101.2
20240420131657 20 302 4.8 6.4 0.00 0.00 0.00 23 1101.2
20240420131156 20 270 6.4 11.3 0.00 0.00 0.00 23 1101.1
20240420130655 20 320 6.4 9.7 0.00 0.00 0.00 23 1101.0
20240420130154 20 272 4.8 6.4 0.00 0.00 0.00 23 1100.9
20240420125653 20 266 6.4 9.7 0.00 0.00 0.00 23 1100.9
20240420125152 20 244 6.4 6.4 0.00 0.00 0.00 23 1100.7
20240420124650 20 280 8.0 9.7 0.00 0.00 0.00 23 1100.6
20240420124149 20 288 6.4 9.7 0.00 0.00 0.00 23 1100.8
20240420123649 20 285 8.0 9.7 0.00 0.00 0.00 23 1100.7
20240420123148 20 270 4.8 11.3 0.00 0.00 0.00 23 1100.5
20240420122647 20 324 6.4 12.9 0.00 0.00 0.00 23 1100.5
20240420122145 20 292 4.8 14.5 0.00 0.00 0.00 23 1100.6
20240420121645 20 276 6.4 11.3 0.00 0.00 0.00 23 1100.3
20240420121144 20 277 6.4 12.9 0.00 0.00 0.00 23 1100.1
20240420120642 20 302 6.4 12.9 0.00 0.00 0.00 23 1100.2
20240420120140 20 268 8.0 11.3 0.00 0.00 0.00 23 1100.0
20240420115639 20 241 6.4 12.9 0.00 0.00 0.00 22 1100.1
20240420115137 20 322 9.7 12.9 0.00 0.00 0.00 22 1100.3
20240420114635 21 237 4.8 12.9 0.00 0.00 0.00 21 1100.2
20240420114134 20 309 8.0 11.3 0.00 0.00 0.00 21 1100.2
20240420113633 20 326 3.2 11.3 0.00 0.00 0.00 22 1100.1
20240420113132 20 303 9.7 12.9 0.00 0.00 0.00 22 1100.0
20240420112632 20 322 6.4 11.3 0.00 0.00 0.00 22 1100.1
20240420112130 20 15 4.8 6.4 0.00 0.00 0.00 22 1100.1
20240420111628 20 2 4.8 4.8 0.00 0.00 0.00 22 1100.2
20240420111127 20 308 4.8 4.8 0.00 0.00 0.00 22 1100.2
20240420110625 20 14 4.8 4.8 0.00 0.00 0.00 22 1100.1
20240420110125 20 1 3.2 6.4 0.00 0.00 0.00 22 1100.2
20240420105625 20 318 4.8 9.7 0.00 0.00 0.00 22 1100.2
20240420105123 20 358 4.8 6.4 0.00 0.00 0.00 22 1100.3
20240420104622 20 250 4.8 9.7 0.00 0.00 0.00 22 1100.2
20240420104121 20 30 1.6 9.7 0.00 0.00 0.00 22 1100.1
20240420103619 20 262 6.4 6.4 0.00 0.00 0.00 22 1100.2
20240420103118 21 8 3.2 6.4 0.00 0.00 0.00 22 1100.0
20240420102617 21 330 6.4 9.7 0.00 0.00 0.00 21 1099.8
20240420102116 21 0 8.0 9.7 0.00 0.00 0.00 21 1099.9
20240420101615 21 242 8.0 12.9 0.00 0.00 0.00 21 1099.8
20240420101113 21 287 3.2 9.7 0.00 0.00 0.00 21 1099.7
20240420100611 21 263 6.4 11.3 0.00 0.00 0.00 21 1099.8
20240420100110 21 243 4.8 6.4 0.00 0.00 0.00 21 1099.7
20240420095608 21 256 4.8 9.7 0.00 0.00 0.00 21 1099.6
20240420095108 21 320 6.4 9.7 0.00 0.00 0.00 20 1099.6
20240420094608 22 275 6.4 11.3 0.00 0.00 0.00 20 1099.5
20240420094107 22 266 3.2 6.4 0.00 0.00 0.00 20 1099.4
20240420093605 22 222 6.4 9.7 0.00 0.00 0.00 20 1099.5
20240420093103 22 307 9.7 12.9 0.00 0.00 0.00 19 1099.5
20240420092604 22 293 9.7 16.1 0.00 0.00 0.00 19 1099.6
20240420092103 22 261 11.3 14.5 0.00 0.00 0.00 19 1099.2
20240420091603 22 278 8.0 16.1 0.00 0.00 0.00 19 1099.4
20240420091101 22 286 12.9 14.5 0.00 0.00 0.00 19 1099.2
20240420090559 22 276 9.7 16.1 0.00 0.00 0.00 19 1099.3
20240420090059 22 297 8.0 11.3 0.00 0.00 0.00 19 1099.0
20240420085558 23 229 4.8 6.4 0.00 0.00 0.00 18 1099.1
20240420085057 23 260 9.7 12.9 0.00 0.00 0.00 18 1099.3
20240420084555 23 313 8.0 12.9 0.00 0.00 0.00 18 1099.2
20240420084053 23 256 9.7 12.9 0.00 0.00 0.00 18 1099.1
20240420083552 23 275 8.0 12.9 0.00 0.00 0.00 18 1099.1
20240420083051 23 258 17.7 20.9 0.00 0.00 0.00 18 1099.1
20240420082550 23 266 6.4 14.5 0.00 0.00 0.00 18 1099.2
20240420082048 23 303 6.4 12.9 0.00 0.00 0.00 18 1098.9
20240420081547 23 303 14.5 17.7 0.00 0.00 0.00 18 1099.0
20240420081047 23 270 9.7 14.5 0.00 0.00 0.00 18 1099.2
20240420080546 23 248 6.4 11.3 0.00 0.00 0.00 18 1098.9
20240420080046 23 320 12.9 16.1 0.00 0.00 0.00 18 1098.9
20240420075546 23 330 4.8 9.7 0.00 0.00 0.00 18 1099.1
20240420075046 23 286 4.8 4.8 0.00 0.00 0.00 18 1098.9
20240420074546 23 253 4.8 4.8 0.00 0.00 0.00 18 1099.0
20240420074045 23 255 3.2 6.4 0.00 0.00 0.00 18 1098.7
20240420073545 23 284 4.8 6.4 0.00 0.00 0.00 18 1098.7
20240420073043 23 279 3.2 6.4 0.00 0.00 0.00 18 1099.0
20240420072542 23 182 0.0 4.8 0.00 0.00 0.00 18 1098.6
20240420072041 23 265 4.8 4.8 0.00 0.00 0.00 18 1098.7
20240420071542 23 196 1.6 3.2 0.00 0.00 0.00 18 1099.0
20240420071041 23 297 1.6 3.2 0.00 0.00 0.00 18 1098.9
20240420070539 23 298 1.6 3.2 0.00 0.00 0.00 18 1099.0
20240420070037 23 225 1.6 3.2 0.00 0.00 0.00 18 1098.9
20240420065536 23 270 0.0 3.2 0.00 0.00 0.00 18 1098.9
20240420065036 23 218 0.0 3.2 0.00 0.00 0.00 17 1098.6
20240420064536 23 226 1.6 4.8 0.00 0.00 0.00 18 1098.9
20240420064035 23 256 1.6 4.8 0.00 0.00 0.00 18 1098.6
20240420063534 23 198 1.6 6.4 0.00 0.00 0.00 17 1098.7
20240420063033 24 285 3.2 6.4 0.00 0.00 0.00 17 1098.6
20240420062533 24 297 8.0 9.7 0.00 0.00 0.00 17 1098.4
20240420062033 24 248 3.2 6.4 0.00 0.00 0.00 17 1098.7
20240420061531 24 320 6.4 11.3 0.00 0.00 0.00 17 1098.7
20240420061029 24 271 6.4 11.3 0.00 0.00 0.00 17 1098.5
20240420060528 23 210 3.2 9.7 0.00 0.00 0.00 18 1098.5
20240420060026 23 291 6.4 9.7 0.00 0.00 0.00 18 1098.5
20240420055526 23 289 6.4 6.4 0.00 0.00 0.00 18 1098.4
20240420055025 23 272 6.4 9.7 0.00 0.00 0.00 18 1098.4
20240420054525 23 285 4.8 9.7 0.00 0.00 0.00 18 1098.3
20240420054024 23 349 4.8 9.7 0.00 0.00 0.00 18 1098.5
20240420053523 23 253 4.8 9.7 0.00 0.00 0.00 18 1098.5
20240420053022 23 242 3.2 6.4 0.00 0.00 0.00 18 1098.3
20240420052523 23 245 3.2 4.8 0.00 0.00 0.00 18 1098.4
20240420052021 24 281 6.4 6.4 0.00 0.00 0.00 18 1098.3
20240420051519 24 274 3.2 6.4 0.00 0.00 0.00 18 1098.6
20240420051016 24 165 3.2 11.3 0.00 0.00 0.00 18 1098.5
20240420050516 24 284 6.4 12.9 0.00 0.00 0.00 18 1098.3
20240420050015 23 254 4.8 6.4 0.00 0.00 0.00 19 1098.3
20240420045515 24 318 4.8 11.3 0.00 0.00 0.00 19 1098.3
20240420045013 24 182 0.0 6.4 0.00 0.00 0.00 19 1098.2
20240420044511 24 246 6.4 11.3 0.00 0.00 0.00 19 1098.2
20240420044011 25 38 3.2 9.7 0.00 0.00 0.00 18 1098.3
20240420043510 25 334 11.3 12.9 0.00 0.00 0.00 18 1098.1
20240420043010 25 284 1.6 4.8 0.00 0.00 0.00 17 1098.2
20240420042506 25 161 0.0 0.0 0.00 0.00 0.00 16 1098.0
20240420042004 26 148 0.0 0.0 0.00 0.00 0.00 15 1098.0
20240420041503 26 145 0.0 0.0 0.00 0.00 0.00 15 1098.0
20240420041002 26 127 3.2 4.8 0.00 0.00 0.00 14 1098.1
20240420040501 26 137 0.0 1.6 0.00 0.00 0.00 15 1098.1
20240420035959 26 157 0.0 1.6 0.00 0.00 0.00 15 1097.9
20240420035459 26 125 0.0 0.0 0.00 0.00 0.00 16 1097.8
20240420034958 26 147 0.0 1.6 0.00 0.00 0.00 16 1097.8
20240420034457 26 143 0.0 0.0 0.00 0.00 0.00 15 1097.7
20240420033956 26 145 0.0 0.0 0.00 0.00 0.00 15 1097.7
20240420033455 26 164 0.0 0.0 0.00 0.00 0.00 15 1097.4
20240420032953 26 150 0.0 1.6 0.00 0.00 0.00 16 1097.4
20240420032452 26 176 0.0 0.0 0.00 0.00 0.00 16 1097.4
20240420031952 26 168 0.0 0.0 0.00 0.00 0.00 16 1097.2
20240420031451 27 162 0.0 0.0 0.00 0.00 0.00 15 1096.9
20240420030950 27 142 0.0 0.0 0.00 0.00 0.00 15 1097.0
20240420030449 27 100 0.0 1.6 0.00 0.00 0.00 14 1096.7
20240420025948 27 104 1.6 3.2 0.00 0.00 0.00 14 1096.8
20240420025447 27 124 0.0 3.2 0.00 0.00 0.00 14 1096.7
20240420024947 27 112 3.2 3.2 0.00 0.00 0.00 14 1096.8
20240420024445 28 96 3.2 3.2 0.00 0.00 0.00 13 1096.8
20240420023943 28 98 0.0 3.2 0.00 0.00 0.00 13 1096.6
20240420023443 28 135 0.0 0.0 0.00 0.00 0.00 13 1096.5
20240420022942 28 131 0.0 0.0 0.00 0.00 0.00 13 1096.6
20240420022439 28 150 0.0 0.0 0.00 0.00 0.00 13 1096.5
20240420021938 28 143 0.0 0.0 0.00 0.00 0.00 13 1096.5
20240420021437 28 148 0.0 1.6 0.00 0.00 0.00 13 1096.6
20240420020937 28 148 0.0 3.2 0.00 0.00 0.00 12 1096.5
20240420020435 29 149 0.0 0.0 0.00 0.00 0.00 12 1096.4
20240420015935 29 149 0.0 3.2 0.00 0.00 0.00 12 1096.5
20240420015434 29 152 0.0 4.8 0.00 0.00 0.00 12 1096.4
20240420014933 29 149 1.6 1.6 0.00 0.00 0.00 12 1096.3
20240420014433 30 92 1.6 4.8 0.00 0.00 0.00 12 1096.1
20240420013932 30 54 6.4 6.4 0.00 0.00 0.00 12 1096.3
20240420013432 30 146 3.2 4.8 0.00 0.00 0.00 11 1096.2
20240420012931 30 153 0.0 0.0 0.00 0.00 0.00 12 1096.2
20240420012431 30 155 0.0 4.8 0.00 0.00 0.00 12 1096.2
20240420011930 30 86 1.6 3.2 0.00 0.00 0.00 11 1096.2
20240420011428 30 131 1.6 9.7 0.00 0.00 0.00 11 1096.2
20240420010927 30 152 3.2 3.2 0.00 0.00 0.00 12 1096.2
20240420010425 30 149 1.6 3.2 0.00 0.00 0.00 12 1096.1
20240420005923 30 168 1.6 6.4 0.00 0.00 0.00 11 1096.3
20240420005422 30 179 1.6 6.4 0.00 0.00 0.00 11 1096.1
20240420004922 30 166 1.6 1.6 0.00 0.00 0.00 11 1096.4
20240420004420 31 178 3.2 6.4 0.00 0.00 0.00 11 1096.1
20240420003918 31 118 0.0 3.2 0.00 0.00 0.00 10 1096.4
20240420003416 31 122 0.0 4.8 0.00 0.00 0.00 10 1096.2
20240420002915 30 161 3.2 6.4 0.00 0.00 0.00 10 1096.3
20240420002414 31 149 3.2 11.3 0.00 0.00 0.00 10 1096.4
20240420001914 31 176 0.0 9.7 0.00 0.00 0.00 9 1096.5
20240420001413 31 150 6.4 9.7 0.00 0.00 0.00 9 1096.4
20240420000913 31 110 4.8 6.4 0.00 0.00 0.00 9 1096.3
20240420000412 31 155 4.8 9.7 0.00 0.00 0.00 8 1096.5
20240419235911 31 168 1.6 3.2 0.00 0.00 0.00 8 1096.4
20240419235409 32 153 6.4 11.3 0.00 0.00 0.00 8 1096.4
20240419234907 31 135 0.0 6.4 0.00 0.00 0.00 9 1096.5
20240419234405 31 206 0.0 1.6 0.00 0.00 0.00 9 1096.4
20240419233905 31 165 1.6 1.6 0.00 0.00 0.00 9 1096.6
20240419233403 32 165 4.8 6.4 0.00 0.00 0.00 8 1096.5
20240419232903 31 47 1.6 4.8 0.00 0.00 0.00 8 1096.4
20240419232401 30 151 1.6 4.8 0.00 0.00 0.00 8 1096.6
20240419231900 31 152 1.6 9.7 0.00 0.00 0.00 9 1096.6
20240419231400 32 148 9.7 12.9 0.00 0.00 0.00 9 1096.6
20240419230858 31 178 0.0 3.2 0.00 0.00 0.00 9 1096.8
20240419230357 30 241 3.2 9.7 0.00 0.00 0.00 9 1096.6
20240419225855 30 92 6.4 6.4 0.00 0.00 0.00 10 1096.7
20240419225354 31 83 8.0 11.3 0.00 0.00 0.00 9 1096.7
20240419224853 31 134 1.6 4.8 0.00 0.00 0.00 9 1096.7
20240419224352 32 167 0.0 1.6 0.00 0.00 0.00 9 1097.0
20240419223852 31 173 0.0 6.4 0.00 0.00 0.00 10 1096.9
20240419223352 32 157 3.2 9.7 0.00 0.00 0.00 9 1097.1
20240419222850 30 167 0.0 1.6 0.00 0.00 0.00 10 1097.1
20240419222348 31 135 3.2 11.3 0.00 0.00 0.00 10 1097.1
20240419221848 31 96 3.2 6.4 0.00 0.00 0.00 10 1097.2
20240419221346 30 167 0.0 0.0 0.00 0.00 0.00 11 1097.2
20240419220845 31 83 11.3 14.5 0.00 0.00 0.00 11 1097.2
20240419220344 31 173 0.0 9.7 0.00 0.00 0.00 11 1097.5
20240419215844 31 77 6.4 9.7 0.00 0.00 0.00 10 1097.2
20240419215343 31 137 3.2 4.8 0.00 0.00 0.00 11 1097.5
20240419214842 30 166 0.0 4.8 0.00 0.00 0.00 12 1097.5
20240419214341 31 255 4.8 11.3 0.00 0.00 0.00 11 1097.6
20240419213841 31 173 0.0 9.7 0.00 0.00 0.00 11 1097.8
20240419213339 30 133 6.4 12.9 0.00 0.00 0.00 10 1097.8
20240419212838 31 93 0.0 4.8 0.00 0.00 0.00 10 1097.9
20240419212337 30 157 6.4 11.3 0.00 0.00 0.00 11 1098.1
20240419211838 30 141 1.6 11.3 0.00 0.00 0.00 10 1097.9
20240419211336 30 193 3.2 11.3 0.00 0.00 0.00 11 1098.1
20240419210834 31 154 8.0 11.3 0.00 0.00 0.00 11 1098.2
20240419210332 30 154 0.0 3.2 0.00 0.00 0.00 11 1098.2
20240419205831 30 156 11.3 14.5 0.00 0.00 0.00 11 1098.1
20240419205331 30 160 11.3 12.9 0.00 0.00 0.00 12 1098.3
20240419204829 30 143 3.2 16.1 0.00 0.00 0.00 12 1098.2
20240419204327 30 156 3.2 6.4 0.00 0.00 0.00 11 1098.2
20240419203826 30 171 4.8 14.5 0.00 0.00 0.00 12 1098.5
20240419203325 30 128 9.7 12.9 0.00 0.00 0.00 11 1098.4
20240419202825 29 131 0.0 14.5 0.00 0.00 0.00 12 1098.6
20240419202324 30 146 8.0 12.9 0.00 0.00 0.00 11 1098.4
20240419201823 30 113 6.4 9.7 0.00 0.00 0.00 12 1098.6
20240419201323 29 169 3.2 6.4 0.00 0.00 0.00 11 1098.5
20240419200822 29 147 1.6 4.8 0.00 0.00 0.00 11 1098.7
20240419200320 29 150 12.9 17.7 0.00 0.00 0.00 12 1098.6
20240419195818 28 179 3.2 6.4 0.00 0.00 0.00 12 1098.9
20240419195316 28 148 4.8 6.4 0.00 0.00 0.00 12 1098.9
20240419194815 29 92 3.2 9.7 0.00 0.00 0.00 12 1099.1
20240419194314 29 138 6.4 9.7 0.00 0.00 0.00 12 1099.0
20240419193815 29 159 0.0 4.8 0.00 0.00 0.00 12 1099.1
20240419193313 29 139 1.6 3.2 0.00 0.00 0.00 12 1099.3
20240419192812 29 118 4.8 12.9 0.00 0.00 0.00 12 1099.3
20240419192312 28 126 1.6 6.4 0.00 0.00 0.00 12 1099.5
20240419191811 28 70 4.8 9.7 0.00 0.00 0.00 12 1099.5
20240419191310 27 104 0.0 6.4 0.00 0.00 0.00 13 1099.7
20240419190809 28 155 1.6 6.4 0.00 0.00 0.00 12 1099.6
20240419190309 28 66 3.2 4.8 0.00 0.00 0.00 13 1099.5
20240419185807 28 152 4.8 12.9 0.00 0.00 0.00 12 1099.7
20240419185306 28 140 6.4 12.9 0.00 0.00 0.00 12 1099.5
20240419184805 28 161 1.6 4.8 0.00 0.00 0.00 12 1099.7
20240419184305 28 90 4.8 9.7 0.00 0.00 0.00 12 1099.9
20240419183804 28 145 0.0 14.5 0.00 0.00 0.00 13 1099.8
20240419183302 28 119 3.2 6.4 0.00 0.00 0.00 12 1099.8
20240419182801 27 156 1.6 9.7 0.00 0.00 0.00 12 1100.1
20240419182300 28 159 4.8 12.9 0.00 0.00 0.00 12 1100.1
20240419181759 28 142 0.0 6.4 0.00 0.00 0.00 12 1100.1
20240419181258 27 144 1.6 3.2 0.00 0.00 0.00 14 1100.1
20240419180756 27 51 3.2 4.8 0.00 0.00 0.00 13 1100.2
20240419180256 27 138 0.0 0.0 0.00 0.00 0.00 13 1100.5
20240419175755 26 100 3.2 6.4 0.00 0.00 0.00 14 1100.3
20240419175253 26 71 1.6 4.8 0.00 0.00 0.00 14 1100.5
20240419174752 26 118 1.6 6.4 0.00 0.00 0.00 14 1100.5
20240419174251 27 113 4.8 12.9 0.00 0.00 0.00 14 1100.2
20240419173751 26 65 4.8 6.4 0.00 0.00 0.00 15 1100.2
20240419173251 26 108 6.4 9.7 0.00 0.00 0.00 15 1100.5
20240419172749 26 94 0.0 6.4 0.00 0.00 0.00 15 1100.5